AirNav   Bose ProFlight Series 2 Headset
 
 1042 users online  

L05 Kern Valley Airport
Kernville, California, USA

GOING TO KERNVILLE?


FAA INFORMATION EFFECTIVE 02 JANUARY 2020

Location

FAA Identifier: L05
Lat/Long: 35-43-41.6000N 118-25-11.0000W
35-43.693333N 118-25.183333W
35.7282222,-118.4197222
(estimated)
Elevation: 2614 ft. / 796.7 m (surveyed)
Variation: 14E (1985)
From city: 3 miles S of KERNVILLE, CA
Time zone: UTC -8 (UTC -7 during Daylight Saving Time)
Zip code: 93238

Airport Operations

Airport use: Open to the public
Activation date: 07/1949
Control tower: no
ARTCC: LOS ANGELES CENTER
FSS: RANCHO MURIETA FLIGHT SERVICE STATION
NOTAMs facility: RIU (NOTAM-D service available)
Attendance: DAYLIGHT HOURS
Wind indicator: yes
Segmented circle: yes

Airport Communications

CTAF/UNICOM: 122.8

Nearby radio navigation aids

VOR radial/distance  VOR name  Freq  Var
TTEr095/31.3TULE VOR/DME109.2016E
EHFr052/36.1SHAFTER VORTAC115.4014E

Airport Services

Parking: tiedowns
Airframe service: MINOR
Powerplant service: MINOR
Bottled oxygen: NONE
Bulk oxygen: NONE

Runway Information

Runway 17/35

Dimensions: 3500 x 50 ft. / 1067 x 15 m
Surface: asphalt, in good condition
Weight bearing capacity: 
Single wheel: GROSS RWY PAVEMENT STRENGTH ESTIMATE PRVDD BY ARPT MANAGER; 12500 LBS.
RUNWAY 17  RUNWAY 35
Latitude: 35-43.980500N35-43.405333N
Longitude: 118-25.154333W118-25.211000W
Traffic pattern: rightleft
Markings: basic, in good conditionbasic, in good condition
Runway end identifier lights: nono
Obstructions: 10 ft. trees, 375 ft. from runway, 100 ft. right of centerline, 17:1 slope to clearnone
RWY 35 +1 FT ROCKS O-90 FT FM EOR 50 FT L TO 80 FT R PRVDG WASHOUT PROTECTION FM LAKE; +5 FT BRUSH 180-200 FT FM EOR 0 FT L.

Airport Ownership and Management from official FAA records

Ownership: Publicly-owned
Owner: COUNTY OF KERN DEPT OF AIRPORTS
3701 WINGS WAY, SUITE 300
BAKERSFIELD, CA 93308-7026
Phone 661-391-1800
OWNED BY US FOREST SVC ON LEASE TO KERN COUNTY.
Manager: RON BREWSTER
3701 WINGS WAY, SUITE 300
BAKERSFIELD, CA 93308-7026
Phone 661-391-1824
CELL 661-747-4053.

Airport Operational Statistics

Aircraft based on the field: 10
Single engine airplanes: 10
    
Aircraft operations: avg 32/day *
54% transient general aviation
44% local general aviation
2% military
* for 12-month period ending 18 March 2019

Additional Remarks

NO NIGHT OPERATIONS.
FLY-IN CAMPGROUND ON ARPT.
FOR CD CTC JOSHUA APCH AT 661-277-3843.

Instrument Procedures

There are no published instrument procedures at L05.

Some nearby airports with instrument procedures:

KIYK - Inyokern Airport (29 nm E)
KNID - China Lake Naval Air Weapons Station (Armitage Field) (36 nm E)
KBFL - Meadows Field Airport (36 nm SW)
KPTV - Porterville Municipal Airport (36 nm NW)
L45 - Bakersfield Municipal Airport (37 nm SW)
 
Loc | Ops | Rwys | IFR | FBO | Links
Com | Nav | Svcs | Stats | Notes
Area around L05 (Kern Valley Airport)
 
Road maps at: MapQuest Bing Google
 
Aerial photo
WARNING: Photo may not be current or correct
Aerial photo of L05 (Kern Valley Airport)
Photo courtesy of www.MarkHoltzman.com
Photo taken 12-Nov-2017
looking west.

Do you have a better or more recent aerial photo of Kern Valley Airport that you would like to share? If so, please send us your photo.

 
Sectional chart

 
Airport distance calculator
Flying to Kern Valley Airport? Find the distance to fly.

From to L05

Sunrise and sunset
Times for 26-Jan-2020
 Local
(UTC-8)
 Zulu
(UTC)
Morning civil twilight06:3214:32
Sunrise06:5914:59
Sunset17:1401:14
Evening civil twilight17:4101:41

Current date and time
Zulu (UTC)  26-Jan-2020 15:11:08
Local (UTC-8)  26-Jan-2020 07:11:08
 
METAR
KBFL 
35nm SW 
261454Z 00000KT 10SM OVC080 11/07 A3016 RMK AO2 SLP210 T01060072 53012
KTSP 
36nm S 
261455Z AUTO RMK AO2
KPTV 
36nm NW 
261456Z AUTO 08003KT 10SM FEW029 OVC075 10/08 A3018 RMK AO2 SLP221 T01000083 53015
KNID 
37nm E 
261456Z AUTO 32003KT 10SM CLR 04/00 A3008 RMK AO2 SLP191 T00390000 55001 $
KDLO 
40nm W 
261455Z AUTO 00000KT 10SM OVC085 07/06 A3016 RMK AO2 T00680055
KMHV 
42nm S 
261440Z AUTO 05004KT 10SM CLR 07/M00 A3010 RMK A01
TAF
KBFL 
35nm SW 
261140Z 2612/2712 00000KT P6SM BKN200 FM261500 23003KT P6SM SCT025 BKN050 OVC250 FM261900 25004KT P6SM BKN025 OVC050 FM270000 33004KT P6SM SCT025 BKN050 FM270900 34004KT 4SM BR BKN050
NOTAMs
Click for the latest NOTAMs
NOTAMs are issued by the DoD/FAA and will open in a separate window not controlled by AirNav.

 

 
 

Where to Eat: Catering, Restaurants, Food shops

  
 Business Name 
 
 Contact 
 
 Services / Description 
 
Distance
 
Comments
  
Airport Cafe 760-376-2852
no information available

If you are affiliated with Airport Cafe and would like to show here your services, contact info, web link, logo, and more, click here
on airport  
   2 read write
 

Would you like to see your business listed on this page?

 If your business provides an interesting product or service to pilots, flight crews, aircraft, or users of the Kern Valley Airport, you should consider listing it here.  To start the listing process, click on the button below
 
Add a business
 

Other Pages about Kern Valley Airport

Update a link
 
Copyright © AirNav, LLC. All rights reserved. Privacy Policy  Contact